Location: Brabourne
(51.1333°N, 1.0000°E)
Time: 12:04:34
(UTC+00:00)

Cosmos 1763 Rocket - Visible Passes

Search period start: 22 October 2021 00:00
Search period end: 01 November 2021 00:00
Orbit: 733 x 779 km, 74.0° (Epoch: 21 October)

Date Brightness Start Highest point End Pass type
(mag) Time Alt. Az. Time Alt. Az. Time Alt. Az.
22 Oct 6.2 01:56:58 13° NNE 01:56:58 13° NNE 01:57:27 10° NNE visible
22 Oct 5.6 03:36:59 14° NNW 03:36:59 14° NNW 03:38:19 10° N visible
23 Oct 5.9 02:57:16 14° N 02:57:16 14° N 02:58:11 10° N visible
24 Oct 6.2 02:17:32 12° N 02:17:32 12° N 02:17:52 10° NNE visible
25 Oct 6.0 03:17:48 11° N 03:17:48 11° N 03:18:00 10° N visible
